Location: Bakov nad Jizerou
(50.4784°N, 14.9394°E)
Time: 09:52:20
(UTC+00:00)

Cosmos 1536 Rocket - Pass Details

Date: 25 October 2021
Orbit: 605 x 633 km, 82.5° (Epoch: 28 November)

Event Time Altitude Azimuth Distance (km) Brightness Sun altitude
Rises 04:46:38 0° 194° (SSW) 2,888 6.9 -9.0°
Reaches altitude 10° 04:48:52 10° 196° (SSW) 1,982 6.1 -8.6°
Maximum altitude 04:53:14 72° 281° (W) 653 3.5 -8.0°
Drops below altitude 10° 04:57:37 10° 7° (N) 1,981 6.1 -7.3°
Sets 04:59:51 0° 9° (N) 2,887 7.0 -6.9°
